Location: Rumah Apan
(2.7833°N, 113.9500°E)
Time: 00:14:42
(UTC+00:00)

CZ-2C R/B - Pass Details

Date: 25 July 2021
Orbit: 388 x 578 km, 35.0° (Epoch: 22 September)

Event Time Altitude Azimuth Distance (km) Brightness Sun altitude
Rises 11:34:49 0° 296° (WNW) 2,521 6.7 -14.1°
Reaches altitude 10° 11:37:01 10° 289° (WNW) 1,679 5.2 -14.6°
Maximum altitude 11:40:42 44° 217° (SW) 724 2.0 -15.5°
Enters shadow 11:43:01 21° 155° (SSE) 1,206 2.6 -16.0°
